Location: Kings Park
(40.8862°N, 73.2573°W)
Time: 07:18:52
(UTC+00:00)

Cosmos 1939 Rocket - Pass Details

Date: 29 October 2020
Orbit: 532 x 584 km, 97.4° (Epoch: 02 December)

Event Time Altitude Azimuth Distance (km) Brightness Sun altitude
Rises 23:16:09 0° 175° (S) 2,730 6.4 -16.4°
Reaches altitude 10° 23:18:19 10° 179° (S) 1,831 5.5 -16.8°
Maximum altitude 23:22:13 61° 259° (W) 630 3.3 -17.6°
Drops below altitude 10° 23:26:07 10° 341° (NNW) 1,817 5.7 -18.3°
Sets 23:28:15 0° 345° (NNW) 2,707 6.5 -18.7°
